Weather History for Poplar Bluff, MO

Change the Weather History Date:

Friday, March 21, 2014

  Actual Average Record
Temperature  
Mean Temperature 52 °F -  
Max Temperature 69 °F 60 °F 90 °F (1919)
Min Temperature 37 °F 37 °F 19 °F (1986)
Degree Days  
Heating Degree Days 12    
Growing Degree Days 2 (Base 50)    
Moisture  
Dew Point 37 °F    
Average Humidity 54    
Maximum Humidity 79    
Minimum Humidity 32    
Precipitation  
Precipitation 0.00 in - - ()
Sea Level Pressure  
Sea Level Pressure 29.94 in    
Wind  
Wind Speed 7 mph (SSW)    
Max Wind Speed 25 mph    
Max Gust Speed 30 mph    
Visibility 10 miles    
Events      
Averages and records for this station are not official NWS values.
T = Trace of Precipitation, MM = Missing Value Source: NWS Daily Summary

Daily Weather History Graph

Daily Weather History Graph

Search for Another Location

Airport:

Trip Planner

Search our weather history database for the weather conditions in past years. The results will help you decide how hot, cold, wet, or windy it might be!

Date:

Astronomy

Mar. 21, 2014 Rise Set
Actual Time 7:03 AM CDT 7:14 PM CDT
Civil Twilight 6:37 AM CDT 7:39 PM CDT
Nautical Twilight 6:07 AM CDT 8:10 PM CDT
Astronomical Twilight 5:36 AM CDT 8:40 PM CDT
Moon No Moon Rise 10:02 AM CDT (3/21)
Length of Visible Light 13h 02m
Length of Day
12h 10m
Waning Gibbous, 75% of the Moon is Illuminated
Mar 21
Waning Gibbous
Mar 23
Last Quarter
Mar 30
New
Apr 7
First Quarter
Apr 15
Full

Hourly Weather History & Observations

Time (CDT) Temp. Dew Point Humidity Pressure Visibility Wind Dir Wind Speed Gust Speed Precip Events Conditions
12:53 AM 46.9 °F 34.0 °F 61% 30.02 in 10.0 mi SSW 5.8 mph - N/A   Clear
1:53 AM 48.0 °F 33.1 °F 56% 30.02 in 10.0 mi South 3.5 mph - N/A   Clear
2:53 AM 46.9 °F 33.1 °F 59% 30.01 in 10.0 mi SSW 3.5 mph - N/A   Clear
3:53 AM 44.1 °F 33.1 °F 65% 29.99 in 10.0 mi Calm Calm - N/A   Clear
4:53 AM 39.9 °F 33.1 °F 77% 29.99 in 10.0 mi Calm Calm - N/A   Clear
5:53 AM 37.9 °F 32.0 °F 79% 29.99 in 10.0 mi Calm Calm - N/A   Clear
6:53 AM 37.0 °F 30.9 °F 79% 29.99 in 10.0 mi Calm Calm - N/A   Clear
7:53 AM 39.0 °F 33.1 °F 79% 29.99 in 10.0 mi Calm Calm - N/A   Clear
8:53 AM 46.9 °F 37.0 °F 68% 29.99 in 10.0 mi Calm Calm - N/A   Clear
9:53 AM 54.0 °F 34.0 °F 47% 30.00 in 10.0 mi SW 10.4 mph - N/A   Clear
10:53 AM 59.0 °F 35.1 °F 41% 29.99 in 10.0 mi SW 15.0 mph - N/A   Clear
11:53 AM 63.0 °F 36.0 °F 37% 29.97 in 10.0 mi SSW 16.1 mph - N/A   Clear
12:53 PM 64.9 °F 37.0 °F 36% 29.95 in 10.0 mi SSW 18.4 mph 26.5 mph N/A   Clear
1:53 PM 68.0 °F 37.0 °F 32% 29.92 in 10.0 mi SW 20.7 mph 25.3 mph N/A   Clear
2:53 PM 68.0 °F 37.9 °F 33% 29.90 in 10.0 mi SSW 23.0 mph 28.8 mph N/A   Clear
3:53 PM 68.0 °F 37.0 °F 32% 29.87 in 10.0 mi SSW 25.3 mph 29.9 mph N/A   Clear
4:53 PM 66.0 °F 37.9 °F 36% 29.86 in 10.0 mi SSW 16.1 mph - N/A   Clear
5:53 PM 66.0 °F 39.0 °F 37% 29.87 in 10.0 mi SW 15.0 mph - N/A   Clear
6:53 PM 63.0 °F 41.0 °F 45% 29.88 in 10.0 mi SSW 9.2 mph - N/A   Clear
7:53 PM 60.1 °F 42.1 °F 51% 29.88 in 10.0 mi South 5.8 mph - N/A   Clear
8:53 PM 59.0 °F 42.1 °F 53% 29.89 in 10.0 mi SSW 8.1 mph - N/A   Clear
9:53 PM 55.0 °F 42.1 °F 62% 29.89 in 10.0 mi SSW 6.9 mph - N/A   Clear
10:53 PM 55.9 °F 42.1 °F 60% 29.90 in 10.0 mi SSW 4.6 mph - N/A   Clear
11:53 PM 54.0 °F 43.0 °F 66% 29.92 in 10.0 mi West 9.2 mph - N/A   Mostly Cloudy